Regional Weather Roundup
Issued by NWS

Home | Current Version | Previous Version | Text Only | Print | Product List | Glossary Off
Versions: 1 2 3 4 5 6 7 8 9 10 11 12 13 14 15 16 17 18 19 20 21 22 23 24 25 26 27 28 29 30 31 32 33 34 35 36 37 38 39 40 41 42 43 44 45 46 47 48 49 50

000
ASUS43 KBIS 232202
RWRND

NORTH DAKOTA REGIONAL WEATHER ROUNDUP
NATIONAL WEATHER SERVICE BISMARCK ND
500 PM CDT THU MAR 23 2017

NOTE: "FAIR" INDICATES FEW OR NO CLOUDS BELOW 12,000 FEET WITH NO
SIGNIFICANT WEATHER AND/OR OBSTRUCTIONS TO VISIBILITY.


NDZ001>003-009>011-017-232300-
NORTHWEST NORTH DAKOTA

CITY           SKY/WX    TMP DP  RH WIND       PRES   REMARKS
WILLISTON      FAIR      58  37  45 NE10      29.75S
MINOT          FAIR      41  34  76 N10       29.77R
MINOT AFB      CLOUDY    40  34  78 N9        29.76R
$$

NDZ018>021-031>035-040>046-232300-
SOUTHWEST NORTH DAKOTA

CITY           SKY/WX    TMP DP  RH WIND       PRES   REMARKS
BISMARCK       LGT RAIN  41  38  89 NW9       29.76R
DICKINSON      CLOUDY    50  35  56 NW6       29.73S
GARRISON         N/A     41  35  79 W5        29.75S
HETTINGER ARPT LGT RAIN  44  39  82 NE14      29.76R
$$

NDZ004>008-012>016-024-026-027-054-232300-
NORTHEAST NORTH DAKOTA

CITY           SKY/WX    TMP DP  RH WIND       PRES   REMARKS
GRAND FORKS    CLOUDY    38  35  89 S7        29.78R
GRND FRKS AFB  CLOUDY    36  36  99 W3        29.78R
DEVILS LAKE    LGT RAIN  35  33  92 E3        29.76F
$$

NDZ022-023-025-028>030-036>039-047>053-232300-
SOUTHEAST NORTH DAKOTA

CITY           SKY/WX    TMP DP  RH WIND       PRES   REMARKS
FARGO          CLOUDY    37  35  92 SE15      29.79R
JAMESTOWN      CLOUDY    40  37  89 N7        29.72R
$$




USA.gov is the U.S. government's official web portal to all federal, state and local government web resources and services.